Flag for Guadeloupe Weather past 2 weeks in Basse-Terre, Guadeloupe

Now
82 °F

Scattered clouds.


Feels Like: 85 °F
Forecast: N/A
Wind: 7 mph from Southeast

Location: Le Raizet - Guadeloupe

Current Time: Jan 30, 2015 at 5:05:47 PM

Latest Report: Jan 30, 2015 at 4:34 PM


Visibility: N/A

Pressure: 29.92 "Hg

Humidity: 58%

Dew point: 66 °F

Location of Basse-TerreLocation

Historic Weather in Basse-Terre — Graph

°F

Basse-Terre temperature yesterday

Maximum temperature yesterday: 84 °F (at 11:30 AM)
Minimum temperature yesterday: 70 °F (at 3:00 AM)
Average temperature yesterday: 77 °F

Past Weeks' High & Low Weather Summary

 TemperatureHumidityPressure
High86 °F (Jan 22, 12:00 PM)100% (Jan 17, 4:30 AM)30.07 "Hg (Jan 17, 4:30 AM)
Low66 °F (Jan 20, 4:30 AM)43% (Jan 25, 2:00 PM)29.92 "Hg (Jan 19, 2:30 PM)
Average77 °F75%29.99 "Hg
* Reported Jan 15 4:00 PM — Jan 30 4:00 PM, Basse-Terre, Weather by CustomWeather, © 2014

Note: Actual official high and low records may vary slightly from our data, if they occured in-between our weather recording intervals... More about our weather records

Advertising

Basse-Terre weather history for previous 24 hours

 ConditionsComfort  
Time TempWeatherWind HumidityBarometerVisibility
4:00 PM
Jan 30
82 °FScattered clouds.7 mph58%29.92 "HgN/A
3:30 PM84 °FScattered clouds.3 mph55%29.92 "HgN/A
3:00 PM82 °FScattered clouds.3 mph62%29.92 "HgN/A
2:30 PM82 °FScattered clouds.6 mph58%29.92 "HgN/A
2:00 PM86 °FScattered clouds.3 mph52%29.92 "HgN/A
1:00 PM84 °FScattered clouds.7 mph55%29.95 "HgN/A
12:35 PM84 °FScattered clouds.7 mph55%29.95 "HgN/A
12:00 PM82 °FScattered clouds.6 mph58%29.98 "HgN/A
11:30 AM84 °FScattered clouds.7 mph55%29.98 "HgN/A
11:00 AM84 °FScattered clouds.8 mph55%29.98 "HgN/A
10:30 AM82 °FScattered clouds.5 mph58%30.01 "HgN/A
10:00 AM82 °FScattered clouds.3 mph55%30.01 "HgN/A
9:34 AM82 °FPassing clouds.3 mph58%30.01 "HgN/A
9:00 AM81 °FPassing clouds.2 mph66%30.01 "HgN/A
8:30 AM75 °FPassing clouds.No wind83%29.98 "HgN/A
8:00 AM72 °FPassing clouds.No wind88%29.98 "HgN/A
7:30 AM70 °FPassing clouds.No wind94%29.98 "HgN/A
7:00 AM66 °FClear.No wind94%29.98 "HgN/A
6:30 AM66 °FClear.No wind94%29.95 "HgN/A
6:00 AM66 °FClear.No wind94%29.95 "HgN/A
5:30 AM66 °FClear.No wind94%29.95 "HgN/A
5:00 AM66 °FClear.No wind94%29.92 "HgN/A
4:30 AM66 °FClear.No wind94%29.92 "HgN/A
4:00 AM66 °FClear.No wind94%29.92 "HgN/A
3:30 AM66 °FClear.No wind94%29.92 "HgN/A
3:00 AM66 °FClear.No wind94%29.95 "HgN/A
2:30 AM68 °FClear.1 mph88%29.95 "HgN/A
2:00 AM68 °FClear.No wind88%29.95 "HgN/A
1:30 AM68 °FClear.No wind94%29.95 "HgN/A
1:00 AM68 °FClear.1 mph88%29.98 "HgN/A
12:30 AM68 °FClear.1 mph94%29.98 "HgN/A
12:00 AM68 °FClear.2 mph88%29.98 "HgN/A
11:30 PM
Jan 29
70 °FClear.No wind88%30.01 "HgN/A
11:00 PM70 °FClear.2 mph88%30.01 "HgN/A
10:30 PM70 °FClear.1 mph88%30.01 "HgN/A
10:00 PM72 °FClear.2 mph83%30.01 "HgN/A
9:30 PM72 °FClear.No wind83%30.01 "HgN/A
9:00 PM73 °FClear.No wind78%30.01 "HgN/A
8:30 PM75 °FClear.No wind74%30.01 "HgN/A
8:00 PM75 °FClear.1 mph74%29.98 "HgN/A
7:30 PM75 °FClear.3 mph69%29.98 "HgN/A
7:00 PM77 °FPassing clouds.5 mph65%29.98 "HgN/A
6:30 PM77 °FPassing clouds.6 mph65%29.95 "HgN/A
6:00 PM79 °FPassing clouds.7 mph61%29.95 "HgN/A
5:30 PM81 °FPassing clouds.9 mph58%29.95 "HgN/A
5:00 PM81 °FPassing clouds.9 mph58%29.95 "HgN/A
Weather by CustomWeather, © 2014

See weather overviewHow to use our weather pages